FALCON 9 R/B, 42433

Orbit data source: Space-Track

FALCON 9 R/B, 42433 is space debris in HEO originally from a launch on Thu, 30 Mar 2017 UTC launched from the Air Force Eastern Test Range (AFETR). Debris objects in space refer to the collection of defunct objects orbiting the Earth. Examples of debris include non-operational satellites, rocket bodies, and fragments generated from explosions, collisions, or faulty payload assembly.

Loading next visibility...
Identifier
42433, 2017-017B
Orbit
HEO
Country
Flag of USUS
Related business
Manufacturer
SpaceX
Mission
Spacecraft
Bus & Motor
F9ST2, Unknown motor
Mass
~4,000 kg wet, ~4,000 kg dry
Launch date (UTC)
2017-03-30 (9 years ago)
Launch vehicle
Unknown
Launch site
Air Force Eastern Test Range (AFETR)
Object type
Payload
Rocket body
Debris
Shape & HBR
Cyl, 7.8 m
Radar Cross Section
39.980 m², Large (>1 m²)

Expand to show TLE details & history
Last TLE update: 3 days ago

TLE from 3 days ago
0 FALCON 9 R/B
1 42433U 17017B   26170.84186746  .00007333  00000-0  99699-3 0  9993
2 42433  25.8312 250.3794 6690459 265.4063  21.5797  3.07161777 90306
Epoch: 2026-06-19T20:12Z
TLE epoch observation values (Epoch: 2026-06-19T20:12:17.348Z)
Latitude
0.00044°
Longitude
39.31286°
Altitude
5,322.64 km
Speed
6.942 km/s
True Right ascension
16h 41m 48s
True Declination
0° 00' 02"
Sunlit
Object was in full shadow at epoch
Visualization orbit readout
Latitude
Unknown
Longitude
Unknown
Altitude
Unknown
Speed
Unknown
Apparent Right ascension
Unknown
Apparent Declination
Unknown
Sunlit
N/A
Visualization observer readout
Local Sidereal Time
21:36:19
Azimuth
Unknown
Elevation
Unknown
Doppler factor
Unknown
Orbital elements
Apogee altitude
26,993.358 km
Perigee altitude
239.077 km
Semi-major axis
19,994.354 km
Eccentricity
0.66905
Inclination
25.8312°
RAAN
250.3794°
Arg. of periapsis
265.4063°
True anomaly
94.74769°
Mean anomaly
21.5797°
Eccentric anomaly
51.63664°
Mean motion
0.76768 °/min
Orbital period
468.94 mins
BSTAR
0.00099699
Loading maneuver chart data...
Computing Atmospheric mass density...
Loading historical data...
Loading historical data...
Loading historical data...
Loading historical data...
Loading historical data...
Loading historical data...
Loading historical data...
Other satellites on launch #17 in the year 2017 (2017-03-30 UTC)

Documentation

Showing up to 5 results
|